Location: Broekland
(52.3610°N, 6.2005°E)
Time: 21:31:53
(UTC+00:00)

ARIANE 6 FM1 Upper Stage - Visible Passes

Search period start: 20 April 2026 00:00
Search period end: 30 April 2026 00:00
Orbit: 525 x 604 km, 62.0° (Epoch: 20 April)

Date Brightness Start Highest point End Pass type
(mag) Time Alt. Az. Time Alt. Az. Time Alt. Az.
20 Apr 5.0 19:55:41 10° WNW 19:58:49 21° N 20:01:56 10° NE visible
20 Apr 4.5 21:35:29 10° NW 21:38:54 26° NNE 21:41:17 15° ENE visible
20 Apr 3.5 23:14:24 10° NW 23:17:16 45° NW 23:17:16 45° NW visible
21 Apr 4.9 19:55:32 10° NW 19:58:38 21° N 20:01:42 10° NE visible
21 Apr 4.2 21:35:05 10° NW 21:38:39 29° NNE 21:40:40 19° ENE visible
21 Apr 3.6 23:14:01 10° NW 23:16:38 39° WNW 23:16:38 39° WNW visible
22 Apr 4.9 19:55:19 10° NW 19:58:25 21° N 20:01:30 10° NE visible
22 Apr 3.9 21:34:41 10° NW 21:38:23 34° NNE 21:40:03 24° ENE visible
22 Apr 3.9 23:13:39 10° NW 23:16:01 33° WNW 23:16:01 33° WNW visible
23 Apr 4.8 19:55:05 10° NW 19:58:13 21° N 20:01:20 10° ENE visible
23 Apr 3.5 21:34:15 10° NW 21:38:04 41° NNE 21:39:28 30° ENE visible
23 Apr 4.1 23:13:19 10° WNW 23:15:26 27° WNW 23:15:26 27° WNW visible
24 Apr 4.6 19:54:46 10° NW 19:58:00 22° N 20:01:11 10° ENE visible
24 Apr 3.1 21:33:49 10° NW 21:37:44 51° NNE 21:38:54 37° E visible
24 Apr 4.4 23:13:03 10° WNW 23:14:52 22° W 23:14:52 22° W visible
25 Apr 4.5 19:54:25 10° NW 19:57:46 24° NNE 20:01:03 10° ENE visible
25 Apr 2.7 21:33:23 10° NW 21:37:22 66° NE 21:38:21 46° E visible
25 Apr 4.7 23:12:52 10° WNW 23:14:19 17° W 23:14:19 17° W visible
26 Apr 4.3 19:54:03 10° NW 19:57:30 27° NNE 20:00:56 10° ENE visible
26 Apr 2.4 21:32:58 10° NW 21:36:59 85° NE 21:37:50 54° SE visible
26 Apr 4.9 23:12:51 10° WNW 23:13:48 14° W 23:13:48 14° W visible
27 Apr 4.0 19:53:38 10° NW 19:57:14 31° NNE 20:00:48 10° E visible
27 Apr 2.5 21:32:33 10° NW 21:36:33 73° SW 21:37:20 53° SSE visible
27 Apr 5.2 23:13:12 10° W 23:13:18 10° W 23:13:18 10° W visible
28 Apr 3.7 19:53:12 10° NW 19:56:56 36° NNE 20:00:37 10° E visible
28 Apr 2.8 21:32:11 10° NW 21:36:04 53° SW 21:36:52 44° S visible
29 Apr 3.4 19:52:45 10° NW 19:56:36 43° NNE 20:00:24 10° ESE visible
29 Apr 3.3 21:31:51 10° WNW 21:35:34 39° SW 21:36:25 34° SSW visible
